Location: Glendale
(41.3970°N, 81.5423°W)
Time: 07:15:41
(UTC+00:00)

Daily predictions for brighter satellites

Satellite Brightness Start Highest point End
(mag) Time Altitude Azimuth Time Altitude Azimuth Time Altitude Azimuth
FALCON 9 DEB 3.3 22:53:36 10° WSW 22:56:48 63° NW 23:00:01 10° NE
NOAA 11 4.3 22:54:32 10° SSE 22:59:49 55° ENE 23:05:08 10° N
FALCON 9 DEB 3.5 22:57:40 10° WSW 23:00:49 53° NW 23:03:56 10° NE
COSMO-SKYMED 1 3.2 22:57:54 10° NNE 23:01:52 34° E 23:05:48 10° SSE
H-2A R/B 3.5 22:59:21 10° N 23:03:13 39° WNW 23:07:01 10° SW
Cosmos 1825 Rocket 3.7 23:06:36 10° N 23:11:04 84° W 23:15:27 10° S
Cosmos 1980 Rocket 3.8 23:09:55 10° ESE 23:11:54 12° E 23:12:55 11° E
Okean O Rocket 2.3 23:08:47 10° S 23:13:05 60° WSW 23:17:24 10° NNW
FALCON 9 DEB 3.9 23:10:01 10° WSW 23:13:10 44° NNW 23:16:17 10° NE
YAOGAN 1 3.8 23:10:41 10° ESE 23:13:57 21° ENE 23:17:14 10° NNE
Cosmos 1455 3.8 23:11:51 10° ESE 23:14:06 15° E 23:16:20 10° NE
Cosmos 2297 Rocket 2.5 23:09:09 10° NNW 23:14:33 43° ENE 23:19:54 10° SE
CORIOLIS 4.4 23:10:18 10° S 23:15:37 74° WSW 23:21:00 10° NNW
Cosmos 292 Rocket 4.0 23:11:00 10° SSW 23:15:46 78° WNW 23:20:37 10° NNE
Cosmos 1302 Rocket 4.0 23:10:39 10° S 23:15:51 68° ESE 23:21:07 10° NNE
Lacrosse 5 4.1 23:14:11 10° NW 23:16:47 14° N 23:19:23 10° NNE
In-Cosmos 22 Rocket 4.5 23:12:21 10° N 23:17:27 42° ENE 23:22:37 10° SE
FengYun 1-2 T 4.3 23:13:59 10° SSE 23:19:38 90° SSE 23:25:19 10° NNW
CZ-4B R/B 1.9 23:16:32 10° N 23:19:42 58° WNW 23:22:45 10° SSW
ATLAS 2AS CENTAUR R/B 4.4 23:18:42 10° NNW 23:23:34 18° NNE 23:27:36 12° ENE
Cosmos 1726 Rocket 3.7 23:19:32 10° SSW 23:23:52 76° W 23:28:15 10° N
FALCON 9 DEB 4.3 23:21:37 10° W 23:24:36 34° NNW 23:27:21 11° NE
SMAP 4.4 23:21:33 10° S 23:25:59 44° W 23:30:27 10° NNW
Aureole 3 2.6 23:23:30 10° S 23:26:43 68° E 23:29:42 10° NNE
Cosmos 1939 Rocket 2.8 23:22:51 10° SSE 23:26:46 59° ENE 23:30:38 10° N
USA 307 4.4 23:23:56 10° NNW 23:27:20 22° NNE 23:29:25 16° ENE
S3M 4.4 23:22:10 10° SSE 23:27:41 37° E 23:33:16 10° NNE
Aureole 3 Rocket 3.0 23:25:59 10° S 23:29:44 72° E 23:34:52 10° NNE
Cosmos 2228 4.2 23:25:53 10° SSW 23:29:57 46° WNW 23:34:04 10° N
Cosmos 1689 Rocket 1.9 23:27:41 10° NNE 23:30:34 66° ESE 23:33:25 10° S
USA 308 4.4 23:28:45 10° NNW 23:32:13 23° NNE 23:34:05 18° ENE
Milstar 3 4.1 23:27:37 10° SW 23:33:35 28° S 23:39:02 11° ESE
Helios 1A Rocket 3.1 23:31:18 10° SSE 23:35:17 50° ENE 23:39:16 10° N
CZ-2C R/B 3.7 23:30:04 10° SE 23:35:27 41° ENE 23:40:43 10° N
Meteor 2-8 Rocket 4.4 23:35:26 10° S 23:41:32 85° E 23:47:42 10° N
Timation 2 Rocket 4.3 23:36:02 10° NNW 23:42:41 77° WSW 23:49:30 10° SSE
Cosmos 1400 Rocket 3.2 23:41:12 10° SSW 23:45:17 67° W 23:49:23 10° N
Cosmos 2219 3.2 23:39:33 10° NNW 23:45:21 80° ENE 23:51:06 10° SSE
Meteor 2-10 Rocket 3.6 23:40:44 10° S 23:45:54 53° E 23:50:56 10° NNE
Okean-O 2.6 23:42:41 10° SSE 23:47:02 61° ENE 23:51:25 10° N
SKYMED 2 3.9 23:45:40 10° N 23:50:00 70° WNW 23:54:18 10° SSW
CZ-4 R/B 1.2 23:47:27 10° SSE 23:51:18 60° ENE 23:55:06 10° N
Cosmos 1892 2.6 23:48:49 10° N 23:52:41 69° E 23:56:32 10° SSE
Cosmos 2082 4.1 23:48:23 10° N 23:53:49 41° ENE 23:56:35 25° ESE
Cosmos 1408 2.8 23:50:40 10° N 23:54:10 43° E 23:54:58 37° ESE
Cosmos 1992 Rocket 4.0 23:49:30 10° S 23:54:37 60° ESE 23:59:44 10° NNE
PSLV R/B 4.1 23:50:52 10° N 23:55:02 74° WNW 23:59:08 10° SSW
OAO 2 Rocket 4.2 23:50:45 10° WSW 23:55:20 37° S 23:57:25 25° SE
